TimeCDT,TemperatureF,Dew PointF,Humidity,Sea Level PressureIn,VisibilityMPH,Wind Direction,Wind SpeedMPH,Gust SpeedMPH,PrecipitationIn,Events,Conditions,WindDirDegrees,DateUTC
12:51 AM,82.9,68.0,60,29.98,10.0,SSW,8.1,-,N/A,,Clear,200,2013-09-18 05:51:00
1:51 AM,81.0,68.0,65,29.98,10.0,SW,5.8,-,N/A,,Clear,220,2013-09-18 06:51:00
2:51 AM,79.0,69.1,72,29.97,10.0,SSW,4.6,-,N/A,,Clear,200,2013-09-18 07:51:00
3:51 AM,78.1,69.1,74,29.96,10.0,SSW,4.6,-,N/A,,Clear,210,2013-09-18 08:51:00
4:51 AM,77.0,70.0,79,29.95,10.0,South,6.9,-,N/A,,Clear,190,2013-09-18 09:51:00
5:51 AM,78.1,71.1,79,29.96,10.0,SW,5.8,-,N/A,,Clear,220,2013-09-18 10:51:00
6:51 AM,77.0,71.1,82,29.96,10.0,SSE,3.5,-,N/A,,Clear,160,2013-09-18 11:51:00
7:51 AM,75.0,70.0,84,29.99,10.0,Calm,Calm,-,N/A,,Clear,0,2013-09-18 12:51:00
8:51 AM,81.0,72.0,74,30.00,10.0,South,8.1,-,N/A,,Clear,190,2013-09-18 13:51:00
9:51 AM,82.0,72.0,71,30.01,10.0,South,4.6,-,N/A,,Clear,180,2013-09-18 14:51:00
10:51 AM,87.1,70.0,57,30.01,10.0,South,8.1,-,N/A,,Clear,170,2013-09-18 15:51:00
11:51 AM,90.0,68.0,48,29.99,10.0,South,10.4,-,N/A,,Clear,180,2013-09-18 16:51:00
12:51 PM,91.9,64.9,41,29.97,10.0,South,9.2,23.0,N/A,,Clear,170,2013-09-18 17:51:00
1:51 PM,95.0,64.9,37,29.94,10.0,South,13.8,18.4,N/A,,Clear,180,2013-09-18 18:51:00
2:51 PM,93.0,64.9,39,29.92,10.0,South,9.2,16.1,N/A,,Clear,180,2013-09-18 19:51:00
3:51 PM,96.1,64.0,35,29.88,10.0,South,10.4,19.6,N/A,,Partly Cloudy,170,2013-09-18 20:51:00
4:51 PM,93.9,59.0,31,29.87,10.0,SSE,10.4,-,N/A,,Clear,150,2013-09-18 21:51:00
5:51 PM,95.0,60.1,31,29.85,10.0,SE,13.8,-,N/A,,Partly Cloudy,140,2013-09-18 22:51:00
6:51 PM,93.0,62.1,36,29.86,10.0,SSE,12.7,-,N/A,,Clear,150,2013-09-18 23:51:00
7:51 PM,89.1,63.0,42,29.86,10.0,SSE,6.9,-,N/A,,Clear,150,2013-09-19 00:51:00
8:51 PM,89.1,64.0,43,29.88,10.0,SSE,9.2,-,N/A,,Mostly Cloudy,150,2013-09-19 01:51:00
9:51 PM,88.0,63.0,43,29.90,10.0,SE,11.5,-,N/A,,Partly Cloudy,140,2013-09-19 02:51:00
10:51 PM,87.1,66.0,49,29.91,10.0,SSE,13.8,-,N/A,,Clear,150,2013-09-19 03:51:00
11:51 PM,84.9,68.0,57,29.92,10.0,SSE,15.0,21.9,N/A,,Clear,160,2013-09-19 04:51:00